Winner, SD

8:33 AM CDT on September 28, 2016 (GMT -0500)
Winner

Weather History for KICR - March, 2013

Change the Weather History Date:

Sunday, March 24, 2013

  Actual Average Record
Temperature  
Mean Temperature 20 °F 40 °F  
Max Temperature 27 °F 52 °F 69 °F (2015)
Min Temperature 13 °F 28 °F 13 °F (2013)
Degree Days  
Heating Degree Days 45 25  
Month to date heating degree days 838 708  
Since 1 July heating degree days 5501 5717  
Cooling Degree Days 0 0  
Month to date cooling degree days 0 0  
Year to date cooling degree days 0 0  
Moisture  
Dew Point 15 °F    
Average Humidity 78    
Maximum Humidity 88    
Minimum Humidity 67    
Precipitation  
Precipitation T in 0.07 in 0.14 in (2009)
Month to date precipitation 0.57 0.84  
Year to date precipitation 0.57 1.60  
Sea Level Pressure  
Sea Level Pressure 30.23 in    
Wind  
Wind Speed 16 mph (NNW)    
Max Wind Speed 25 mph    
Max Gust Speed 32 mph    
Visibility 7 miles    
Events Snow    
T = Trace of Precipitation, MM = Missing Value Source: NWS Daily Summary

Daily Weather History Graph

Daily Weather History Graph

Search for Another Location

Airport or City:

Trip Planner

Search our weather history database for the weather conditions in past years. The results will help you decide how hot, cold, wet, or windy it might be!

Date:

Astronomy

Mar. 24, 2013 Rise Set
Actual Time 7:34 AM CDT 7:56 PM CDT
Civil Twilight 7:06 AM CDT 8:25 PM CDT
Nautical Twilight 6:32 AM CDT 8:59 PM CDT
Astronomical Twilight 5:58 AM CDT 9:33 PM CDT
Moon 5:23 PM CDT (3/24) 5:50 AM CDT (3/24)
Length of Visible Light 13h 19m
Length of Day
12h 21m
Waxing Gibbous, 92% of the Moon is Illuminated
Mar 24
Waxing Gibbous
Mar 27
Full
Apr 2
Last Quarter
Apr 10
New
Apr 18
First Quarter

Hourly Weather History & Observations

Time (CDT) Temp. Windchill Dew Point Humidity Pressure Visibility Wind Dir Wind Speed Gust Speed Precip Events Conditions
12:53 AM 21.0 °F 8.6 °F 15.1 °F 78% 30.29 in 10.0 mi NNW 12.7 mph - N/A   Clear
1:53 AM 18.0 °F 6.9 °F 12.9 °F 81% 30.29 in 10.0 mi NW 9.2 mph - N/A   Clear
2:53 AM 16.0 °F 5.3 °F 10.9 °F 81% 30.29 in 10.0 mi NW 8.1 mph - N/A   Clear
3:53 AM 15.1 °F 2.5 °F 10.0 °F 80% 30.28 in 10.0 mi WNW 10.4 mph - N/A   Clear
4:53 AM 15.1 °F 1.1 °F 9.0 °F 77% 30.26 in 10.0 mi NW 12.7 mph - N/A   Clear
5:53 AM 15.1 °F 0.5 °F 9.0 °F 77% 30.26 in 10.0 mi NW 13.8 mph - N/A   Clear
6:53 AM 14.0 °F 0.5 °F 8.1 °F 77% 30.26 in 10.0 mi WNW 11.5 mph - N/A   Clear
7:53 AM 12.9 °F -0.9 °F 8.1 °F 81% 30.26 in 10.0 mi WNW 11.5 mph - N/A   Clear
8:53 AM 16.0 °F 2.9 °F 10.0 °F 77% 30.25 in 10.0 mi NW 11.5 mph - N/A   Clear
9:53 AM 19.0 °F 2.4 °F 10.9 °F 71% 30.24 in 10.0 mi NW 21.9 mph - N/A   Partly Cloudy
10:09 AM 19.4 °F 3.2 °F 10.4 °F 68% 30.14 in 10.0 mi NW 20.7 mph - N/A   Mostly Cloudy
10:53 AM 19.0 °F 2.4 °F 12.0 °F 74% 30.24 in 10.0 mi NW 21.9 mph 28.8 mph N/A   Overcast
11:53 AM 21.9 °F 6.5 °F 12.9 °F 68% 30.23 in 6.0 mi NNW 20.7 mph 29.9 mph 0.00 in Snow Light Snow
12:53 PM 23.0 °F 8.0 °F 14.0 °F 68% 30.22 in 10.0 mi NW 20.7 mph - 0.00 in Snow Light Snow
1:53 PM 24.1 °F 8.7 °F 15.1 °F 69% 30.22 in 6.0 mi NNW 23.0 mph 28.8 mph 0.00 in Snow Light Snow
2:39 PM 24.8 °F 10.0 °F 15.8 °F 69% 30.12 in 2.0 mi NNW 21.9 mph - 0.00 in Snow Light Snow
2:53 PM 25.0 °F 10.2 °F 17.1 °F 72% 30.21 in 2.5 mi NNW 21.9 mph - 0.00 in Snow Light Snow
3:04 PM 24.8 °F 10.3 °F 15.8 °F 69% 30.12 in 4.0 mi NNW 20.7 mph 28.8 mph 0.00 in Snow Light Snow
3:53 PM 25.0 °F 10.6 °F 17.1 °F 72% 30.22 in 5.0 mi NNW 20.7 mph - 0.00 in Snow Light Snow
4:02 PM 24.8 °F 10.3 °F 17.6 °F 74% 30.12 in 4.0 mi NNW 20.7 mph 27.6 mph 0.00 in Snow Light Snow
4:53 PM 26.1 °F 11.3 °F 18.0 °F 71% 30.22 in 5.0 mi NNW 23.0 mph 29.9 mph 0.00 in Snow Light Snow
5:29 PM 26.6 °F 12.0 °F 17.6 °F 69% 30.13 in 9.0 mi NNW 23.0 mph 28.8 mph 0.00 in   Overcast
5:42 PM 26.6 °F 12.7 °F 17.6 °F 69% 30.14 in 5.0 mi North 20.7 mph - 0.00 in Snow Light Snow
5:53 PM 25.0 °F 9.9 °F 18.0 °F 75% 30.24 in 3.0 mi NNW 23.0 mph - 0.00 in Snow Light Snow
6:09 PM 26.6 °F 12.4 °F 17.6 °F 69% 30.14 in 9.0 mi North 21.9 mph 27.6 mph 0.00 in   Overcast
6:26 PM 24.8 °F 11.1 °F 19.4 °F 80% 30.15 in 2.5 mi NNW 18.4 mph 26.5 mph 0.00 in Snow Light Snow
6:35 PM 24.8 °F 10.0 °F 17.6 °F 74% 30.15 in 5.0 mi NNW 21.9 mph 27.6 mph 0.00 in Snow Light Snow
6:53 PM 25.0 °F 9.9 °F 17.1 °F 72% 30.25 in 9.0 mi NNW 23.0 mph 28.8 mph 0.00 in   Overcast
7:53 PM 24.1 °F 11.0 °F 17.1 °F 75% 30.28 in 10.0 mi NNW 16.1 mph - 0.00 in   Mostly Cloudy
8:53 PM 23.0 °F 12.4 °F 16.0 °F 74% 30.29 in 10.0 mi NNW 10.4 mph - N/A   Overcast
9:53 PM 23.0 °F 10.6 °F 18.0 °F 81% 30.30 in 10.0 mi NNW 13.8 mph - N/A   Mostly Cloudy
10:31 PM 21.2 °F 9.5 °F 17.6 °F 86% 30.22 in 5.0 mi NNW 11.5 mph - 0.00 in Snow Light Snow
10:45 PM 21.2 °F 8.9 °F 17.6 °F 86% 30.22 in 5.0 mi NNW 12.7 mph - 0.00 in Snow Light Snow
10:53 PM 21.9 °F 10.4 °F 18.0 °F 85% 30.32 in 7.0 mi NNW 11.5 mph - 0.00 in Snow Light Snow
11:17 PM 23.0 °F 10.1 °F 19.4 °F 86% 30.22 in 7.0 mi NNW 15.0 mph - 0.00 in Snow Light Snow
11:38 PM 23.0 °F 11.7 °F 19.4 °F 86% 30.22 in 2.5 mi NNW 11.5 mph - 0.00 in Snow Light Snow
11:44 PM 23.0 °F 11.1 °F 19.4 °F 86% 30.23 in 2.0 mi NNW 12.7 mph - 0.00 in Snow Light Snow
11:53 PM 23.0 °F 11.7 °F 19.9 °F 88% 30.32 in 2.5 mi North 11.5 mph - 0.00 in Snow Light Snow
11:55 PM 23.0 °F 10.6 °F 19.4 °F 86% 30.23 in 2.0 mi North 13.8 mph - 0.00 in Snow Light Snow
11:57 PM 23.0 °F 10.6 °F 19.4 °F 86% 30.23 in 1.5 mi North 13.8 mph - 0.00 in Snow Light Snow